星链-3714 (STARLINK-3714 )

导读

STARLINK-3714是美国太空探索技术公司(SpaceX)星链(Starlink)互联网卫星星座的组成卫星,由SpaceX在2022年3月19日发射升空,星链项目旨在为全球提供高速低延迟卫星互联网服务,该卫星属于星链卫星网络中承担全球网络覆盖的一员。

Basic Information
目录编号:
52094
目录名称:
STARLINK-3714
国际标识:
2022-029G
轨道中心:
EARTH
卫星名称:
星链-3714
卫星全名:
星链-3714 (STARLINK-3714 )
卫星状态:
在轨 (已飞行1551 天)
发射日期:
2022-03-19 UTC
国别 :
美国 (US)
星等 :
--
Orbit Information
数据来源 国际轨道数据 AOE轨道数据
星历时间 2026-06-17T04:07:14+0800
20小时前
查看轨道信息
2026-06-11T06:00:00+0800
6天前
查看轨道信息
半长轴 6917.889km 6917.837km
偏心率 0.0001168 0.0001196
轨道倾角 53.160° 53.163°
近地点辐角 84.160° 99.272°
升交点赤经 3.931° 30.549°
平近点角 275.952° 117.827°
近地点 538.943km 538.872km
远地点 540.561km 540.528km
周期 95.438分钟 95.437分钟
每日圈数 15.088372 15.088542
Detailed Information
固有亮度:
5
最大亮度:
2.5
卫星平台:
Starlink v1.5
覆盖范围:
全球
运营商:
太空探索技术公司
运营商所在国:
美国
制造商(研发单位):
太空探索技术公司
制造商所在国:
美国
使用方式:
暂无
Satellite Introduction
星链(Starlink)计划是由太空探索技术公司(SpaceX)提出的一个巨型低轨卫星互联网星座项目,计划在2019年至2024年间在太空搭建由约1.2万颗卫星组成的“星链”网络,其中1584颗将部署在地球上空550千米处的近地轨道,并从2020年开始工作。该卫星仍在工作。
2D Orbit Map
3D Orbit Map
Orbit Altitude Analysis Chart
Orbit Inclination Analysis Chart
Orbit Comprehensive Analysis Chart
View Comprehensive Chart